Weather in Belo Horizonte

Brazil     19˚54′52″S   43˚56′24″W
temp.,
°C
wind,
m/s
gust,
m/s
humid.,
%
clouds,
%
prec.,
mm/h
press.,
hPa
HPBL,
m
30 november, mon
mon3000:00+19˚e258130 0.0 1018304
03:00+18˚e248616 0.0 1016242
06:00+18˚e24840 0.0 1017259
09:00+24˚ene23560 0.0 1018812
12:00+27˚n224640 0.1 10161493
15:00+27˚n334763 0.2 10131488
18:00+24˚n125880 0.0 1013899
21:00+23˚ene126588 0.1 1015306
1 december, tue
tue100:00+21˚ene127197 0.0 1015145
03:00+20˚ese117385 0.0 1014140
06:00+20˚se0173100 0.0 1015170
09:00+25˚nw2254100 0.0 10161075
12:00+27˚nw334898 0.0 10141421
15:00+26˚wnw346098 2.8 10111130
18:00+23˚sse1273100 5.6 1012117
21:00+22˚e2377100 11.6 1014203
2 december, wed
wed200:00+20˚ne478796 5.6 1014464
03:00+19˚ne258798 8.1 1013348
06:00+19˚ne2489100 0.4 1014349
09:00+24˚ne246291 0.4 1015696
12:00+28˚nnw444962 0.0 10121510
15:00+28˚nnw454879 0.1 10111619
18:00+24˚wsw1168100 5.7 1012269
21:00+20˚ssw2387100 12.3 1014184
3 december, thu
thu300:00+20˚ene3586100 2.1 1013230
03:00+20˚ene1284100 2.1 1012230
06:00+20˚ene128396 0.0 1014155
09:00+25˚nnw366298 0.7 10141047
12:00+27˚nw465690 2.6 10121389
15:00+27˚wnw475892 6.3 10101348
18:00+21˚wsw3880100 1.9 1012520
21:00+21˚wsw1381100 1.9 1014242
4 december, fri
fri400:00+21˚nnw1278100 0.0 1014267
03:00+20˚n128597 0.1 1014260
06:00+20˚ssw118393 0.2 1014154
09:00+24˚nnw126688 0.2 1015471
12:00+29˚w2352100 1.0 10131220
15:00+28˚w3355100 3.4 10101165
18:00+24˚ssw2473100 4.6 1011380
21:00+23˚se2472100 7.3 1014346